AirNav   Air Wisconsin pilot careers
 
 1448 users online  

8G8 Koons Airport
Salem, Ohio, USA

GOING TO SALEM?


FAA INFORMATION EFFECTIVE 06 DECEMBER 2018

Location

FAA Identifier: 8G8
Lat/Long: 40-53-00.2120N / 080-52-59.3050W
40-53.003533N / 080-52.988417W
40.8833922 / -80.8831403
(estimated)
Elevation: 1327 ft. / 404 m (estimated)
Variation: 07W (1985)
From city: 2 miles SW of SALEM, OH
Time zone: UTC -5 (UTC -4 during Daylight Saving Time)
Zip code: 44460

Airport Operations

Airport use: Open to the public
Control tower: no
ARTCC: CLEVELAND CENTER
FSS: CLEVELAND FLIGHT SERVICE STATION
NOTAMs facility: CLE (NOTAM-D service available)
Attendance: DAYLIGHT HOURS
Wind indicator: yes
Segmented circle: no

Airport Communications

CTAF: 122.9

Nearby radio navigation aids

VOR radial/distance  VOR name  Freq  Var
ACOr137/19.7AKRON VOR/DME114.4004W
BSVr075/26.4BRIGGS VOR/DME112.4004W
YNGr204/28.5YOUNGSTOWN VORTAC109.0005W
EWCr285/30.7ELLWOOD CITY VOR/DME115.8008W

 
NDB name  Hdg/Dist  Freq  Var  ID
CASTLE257/22.827209WUCP ..- -.-. .--.
CADIZ016/39.223907WCFX -.-. ..-. -..-

Airport Services

Parking: tiedowns
Airframe service: NONE
Powerplant service: NONE

Runway Information

Runway 9/27

Dimensions: 1850 x 100 ft. / 564 x 30 m
Surface: turf, in good condition
RUNWAY 9  RUNWAY 27
Latitude: 40-53.008667N40-52.998167N
Longitude: 080-53.188833W080-52.787667W
Elevation: 1327.0 ft.1327.0 ft.
Gradient: 1.4%1.4%
Traffic pattern: leftright
Runway end identifier lights: nono
Obstructions: 8 ft. crops, 125 ft. both sides of centerline
RWY 09: OBST CLNS SLOPE 7:1, DUE TO 55-FT TREE, 385-FT FM RWY 09, 55-FT L
70 ft. trees, 50 ft. from runway, 75 ft. left of centerline
RWY 27: OBST CLNS SLOPE 1:1, DUE TO 75-FT TREES 135-FT FM, RWY 27, 60-FT L

Airport Ownership and Management from official FAA records

Ownership: Privately-owned
Owner: DAVID & HARRY KOONS
1760 ST RTE 9
SALEM, OH 44460
Phone 330-337-7303
Manager: DAVID & HARRY KOONS
1760 ST RTE 9
SALEM, OH 44460
Phone 330-337-7303
ADNL CTC: 330-337-1780

Airport Operational Statistics

Aircraft based on the field: 9
Single engine airplanes: 7
Ultralights: 2
    
Aircraft operations: avg 49/week *
98% local general aviation
2% transient general aviation
<1% military
* for 12-month period ending 26 August 2017

Additional Remarks

FOR IFR CLEARANCE CTC CLEVELAND ARTCC (ZOB) 120.775/298.95 OR CALL ZOB 440-774-0489.
DEER, BIRDS & OTHER WILDLIFE ON & INVOF AIRPORT

Instrument Procedures

There are no published instrument procedures at 8G8.

Some nearby airports with instrument procedures:

38D - Salem Airpark Inc (4 nm N)
3G6 - Tri-City Airport (5 nm W)
4G4 - Youngstown Elser Metro Airport (10 nm NE)
02G - Columbiana County Airport (17 nm SE)
KTSO - Carroll County-Tolson Airport (21 nm SW)
 
Loc | Ops | Rwys | IFR | FBO | Links
Com | Nav | Svcs | Stats | Notes


 
Area around 8G8 (Koons Airport)
 
Road maps at: MapQuest Bing Google
 
Aerial photo
WARNING: Photo may not be current or correct
Aerial photo of 8G8 (Koons Airport)
Photo by Rick Hunt
Photo taken 22-Mar-2015
looking south.

Do you have a better or more recent aerial photo of Koons Airport that you would like to share? If so, please send us your photo.

 
Sectional chart

 
Airport distance calculator
Flying to Koons Airport? Find the distance to fly.

From to 8G8

Sunrise and sunset
Times for 11-Dec-2018
 Local
(UTC-5)
 Zulu
(UTC)
Morning civil twilight07:0812:08
Sunrise07:3912:39
Sunset16:5521:55
Evening civil twilight17:2622:26

Current date and time
Zulu (UTC)  11-Dec-2018 18:46:47
Local (UTC-5)  11-Dec-2018 13:46:47
 
METAR
KUCP 
23nm E 
111756Z AUTO 23009KT 9SM CLR 01/M06 A3002 RMK AO2 SLP192 T00111056 10011 21067 58032
KBVI 
23nm E 
111747Z 25008G15KT 10SM CLR 00/M05 A3002
KYNG 
24nm NE 
111751Z 24011G19KT 6SM HZ FEW018 00/M06 A2999 RMK AO2 SLP170 T00001056 10000 21061 58028
KPOV 
26nm NW 
111835Z AUTO 23007KT 10SM CLR 00/M06 A2998 RMK AO2 T00001057 PWINO
KCAK 
26nm W 
111751Z 25016KT 3SM HZ FEW017 SCT250 M01/M06 A3001 RMK AO2 SFC VIS 5 SLP178 T10061061 11006 21067 58029
KAKR 
28nm W 
111754Z AUTO 22012KT 6SM HZ CLR 01/M06 A3001 RMK AO2 SLP172 T00111056 10011 21061 58029
KPHD 
35nm SW 
111753Z AUTO 20007KT 170V240 8SM CLR 00/M06 A3006 RMK AO2 SLP190 T00001061 10000 21061 58034
KPIT 
36nm SE 
111751Z 22011G15KT 10SM CLR 00/M07 A3003 RMK AO2 SLP190 T00001067 10000 21056 58032
KBTP 
43nm E 
111756Z AUTO 23011G16KT 10SM CLR 02/M06 A3001 RMK AO2 SLP184 T00171061 10017 21056 58033 FZRANO
KHLG 
44nm S 
111753Z 22013G19KT 10SM CLR M01/M07 A3005 RMK AO2 SLP195 T10061072 10000 21056 58030
TAF
KBVI 
23nm E 
111720Z 1118/1218 21007KT P6SM SCT015 FM120600 23008KT P6SM BKN015 FM120800 22003KT P6SM BKN250
KYNG 
24nm NE 
111744Z 1118/1218 23010G18KT 6SM HZ FEW015 FM120000 25008KT P6SM BKN020 FM120500 28004KT P6SM SCT008 BKN015 FM121300 VRB03KT P6SM BKN025
KCAK 
26nm W 
111744Z 1118/1218 23012G20KT 6SM HZ FEW130 FM120000 25008KT P6SM FEW030 SCT060 FM120200 26006KT P6SM SCT025 BKN035 FM121200 16004KT P6SM BKN025
NOTAMs
Click for the latest NOTAMs
NOTAMs are issued by the DoD/FAA and will open in a separate window not controlled by AirNav.

 

 
 

Would you like to see your business listed on this page?

 If your business provides an interesting product or service to pilots, flight crews, aircraft, or users of the Koons Airport, you should consider listing it here.  To start the listing process, click on the button below
 
Add a business
 

Other Pages about Koons Airport

Update a link
 
Copyright © AirNav, LLC. All rights reserved. Privacy Policy  Contact